| time (UTC) | temp F | wind direction | speed knots | gust knots | rain 1hr in | rain 24hr in | rain mn in | humidity % | barometer mb |
| 20260509190021 | 57 | 320 | 0.9 | 7.8 | 0.00 | 0.00 | 0.00 | 50 | 1021.5 |
| 20260509185814 | 58 | 248 | 3.5 | 7.0 | 0.00 | 0.00 | 0.00 | 49 | 1023.1 |
| 20260509185508 | 57 | 269 | 2.6 | 7.0 | 0.00 | 0.00 | 0.00 | 49 | 1021.6 |
| 20260509185043 | 57 | 345 | 2.6 | 7.0 | 0.00 | 0.00 | 0.00 | 51 | 1023.1 |
| 20260509185007 | 57 | 258 | 2.6 | 7.0 | 0.00 | 0.00 | 0.00 | 51 | 1021.6 |
| 20260509184541 | 57 | 283 | 2.6 | 6.1 | 0.00 | 0.00 | 0.00 | 51 | 1023.1 |
| 20260509184525 | 57 | 243 | 2.6 | 7.0 | 0.00 | 0.00 | 0.00 | 50 | 1021.6 |
| 20260509184006 | 57 | 257 | 1.7 | 7.0 | 0.00 | 0.00 | 0.00 | 49 | 1021.5 |
| 20260509183540 | 58 | 296 | 2.6 | 8.7 | 0.00 | 0.00 | 0.00 | 50 | 1023.0 |
| 20260509183510 | 57 | 289 | 0.9 | 8.7 | 0.00 | 0.00 | 0.00 | 49 | 1021.4 |
| 20260509183301 | 58 | 319 | 3.5 | 8.7 | 0.00 | 0.00 | 0.00 | 50 | 1023.0 |
| 20260509183023 | 57 | 314 | 2.6 | 8.7 | 0.00 | 0.00 | 0.00 | 49 | 1021.4 |
| 20260509182540 | 58 | 273 | 2.6 | 6.1 | 0.00 | 0.00 | 0.00 | 50 | 1022.9 |
| 20260509182504 | 57 | 267 | 1.7 | 5.2 | 0.00 | 0.00 | 0.00 | 50 | 1021.3 |
| 20260509182040 | 57 | 271 | 2.6 | 7.0 | 0.00 | 0.00 | 0.00 | 50 | 1022.9 |
| 20260509182007 | 57 | 271 | 1.7 | 7.0 | 0.00 | 0.00 | 0.00 | 50 | 1021.4 |
| 20260509181540 | 58 | 323 | 2.6 | 7.0 | 0.00 | 0.00 | 0.00 | 50 | 1022.9 |
| 20260509181527 | 57 | 280 | 3.5 | 7.0 | 0.00 | 0.00 | 0.00 | 50 | 1021.4 |
| 20260509181041 | 57 | 225 | 2.6 | 6.1 | 0.00 | 0.00 | 0.00 | 51 | 1022.8 |
| 20260509181013 | 56 | 225 | 2.6 | 6.1 | 0.00 | 0.00 | 0.00 | 50 | 1021.3 |
| 20260509180540 | 57 | 234 | 2.6 | 6.1 | 0.00 | 0.00 | 0.00 | 52 | 1022.8 |
| 20260509180510 | 56 | 300 | 1.7 | 6.1 | 0.00 | 0.00 | 0.00 | 52 | 1021.3 |
| 20260509180040 | 56 | 306 | 2.6 | 7.0 | 0.00 | 0.00 | 0.00 | 51 | 1022.7 |
| 20260509180029 | 56 | 318 | 1.7 | 7.0 | 0.00 | 0.00 | 0.00 | 51 | 1021.2 |
| 20260509175536 | 56 | 264 | 2.6 | 7.0 | 0.00 | 0.00 | 0.00 | 51 | 1022.5 |
| 20260509175510 | 56 | 317 | 3.5 | 7.0 | 0.00 | 0.00 | 0.00 | 50 | 1021.1 |
| 20260509175036 | 57 | 311 | 1.7 | 4.3 | 0.00 | 0.00 | 0.00 | 52 | 1022.5 |
| 20260509175009 | 56 | 280 | 1.7 | 4.3 | 0.00 | 0.00 | 0.00 | 52 | 1021.1 |
| 20260509174536 | 56 | 306 | 2.6 | 5.2 | 0.00 | 0.00 | 0.00 | 53 | 1022.5 |
| 20260509174517 | 55 | 306 | 0.9 | 5.2 | 0.00 | 0.00 | 0.00 | 51 | 1021.1 |
| 20260509174035 | 56 | 290 | 2.6 | 5.2 | 0.00 | 0.00 | 0.00 | 51 | 1022.4 |
| 20260509174010 | 55 | 286 | 2.6 | 5.2 | 0.00 | 0.00 | 0.00 | 51 | 1021.2 |
| 20260509173536 | 56 | 279 | 1.7 | 5.2 | 0.00 | 0.00 | 0.00 | 53 | 1022.7 |
| 20260509173504 | 55 | 263 | 0.9 | 5.2 | 0.00 | 0.00 | 0.00 | 52 | 1021.1 |
| 20260509173036 | 55 | 313 | 1.7 | 6.1 | 0.00 | 0.00 | 0.00 | 53 | 1022.7 |
| 20260509173021 | 55 | 301 | 0.0 | 6.1 | 0.00 | 0.00 | 0.00 | 52 | 1021.2 |
| 20260509172536 | 55 | 283 | 1.7 | 6.1 | 0.00 | 0.00 | 0.00 | 54 | 1022.8 |
| 20260509172507 | 54 | 284 | 0.9 | 6.1 | 0.00 | 0.00 | 0.00 | 53 | 1021.3 |
| 20260509172035 | 54 | 342 | 2.6 | 7.0 | 0.00 | 0.00 | 0.00 | 54 | 1022.8 |
| 20260509172009 | 53 | 342 | 1.7 | 7.0 | 0.00 | 0.00 | 0.00 | 54 | 1021.3 |
| 20260509171536 | 53 | 311 | 1.7 | 7.0 | 0.00 | 0.00 | 0.00 | 54 | 1021.3 |
| 20260509171035 | 53 | 313 | 1.7 | 6.1 | 0.00 | 0.00 | 0.00 | 54 | 1022.9 |
| 20260509171008 | 53 | 306 | 1.7 | 6.1 | 0.00 | 0.00 | 0.00 | 54 | 1021.4 |
| 20260509170536 | 53 | 276 | 2.6 | 6.1 | 0.00 | 0.00 | 0.00 | 55 | 1022.9 |
| 20260509170512 | 53 | 277 | 0.9 | 6.1 | 0.00 | 0.00 | 0.00 | 54 | 1021.5 |
| 20260509170036 | 53 | 242 | 2.6 | 6.1 | 0.00 | 0.00 | 0.00 | 55 | 1023.0 |
| 20260509170030 | 52 | 269 | 2.6 | 6.1 | 0.00 | 0.00 | 0.00 | 54 | 1021.5 |
| 20260509165536 | 53 | 246 | 2.6 | 6.1 | 0.00 | 0.00 | 0.00 | 55 | 1023.1 |
| 20260509165505 | 52 | 240 | 2.6 | 5.2 | 0.00 | 0.00 | 0.00 | 54 | 1021.5 |
| 20260509165036 | 52 | 313 | 1.7 | 5.2 | 0.00 | 0.00 | 0.00 | 56 | 1023.2 |
| 20260509165007 | 52 | 287 | 1.7 | 5.2 | 0.00 | 0.00 | 0.00 | 55 | 1021.6 |
| 20260509164536 | 52 | 317 | 1.7 | 5.2 | 0.00 | 0.00 | 0.00 | 55 | 1023.1 |
| 20260509164527 | 52 | 310 | 0.9 | 4.3 | 0.00 | 0.00 | 0.00 | 55 | 1021.6 |
| 20260509164036 | 52 | 283 | 1.7 | 6.1 | 0.00 | 0.00 | 0.00 | 57 | 1023.0 |
| 20260509164011 | 51 | 283 | 1.7 | 6.1 | 0.00 | 0.00 | 0.00 | 56 | 1021.6 |
| 20260509163533 | 52 | 300 | 1.7 | 6.1 | 0.00 | 0.00 | 0.00 | 56 | 1023.0 |
| 20260509163507 | 51 | 301 | 1.7 | 6.1 | 0.00 | 0.00 | 0.00 | 56 | 1021.5 |
| 20260509163300 | 52 | 281 | 1.7 | 5.2 | 0.00 | 0.00 | 0.00 | 57 | 1022.8 |
| 20260509163027 | 51 | 292 | 1.7 | 5.2 | 0.00 | 0.00 | 0.00 | 57 | 1021.4 |
| 20260509162527 | 52 | 319 | 2.6 | 5.2 | 0.00 | 0.00 | 0.00 | 56 | 1022.8 |
| 20260509162508 | 51 | 319 | 0.9 | 5.2 | 0.00 | 0.00 | 0.00 | 56 | 1021.3 |
| 20260509162020 | 52 | 310 | 1.7 | 5.2 | 0.00 | 0.00 | 0.00 | 56 | 1022.7 |
| 20260509162008 | 51 | 300 | 1.7 | 5.2 | 0.00 | 0.00 | 0.00 | 56 | 1021.3 |
| 20260509161529 | 51 | 292 | 1.7 | 4.3 | 0.00 | 0.00 | 0.00 | 57 | 1021.3 |
| 20260509161516 | 51 | 292 | 1.7 | 4.3 | 0.00 | 0.00 | 0.00 | 57 | 1022.7 |
| 20260509161236 | 51 | 294 | 2.6 | 5.2 | 0.00 | 0.00 | 0.00 | 58 | 1022.5 |
| 20260509161008 | 50 | 284 | 1.7 | 5.2 | 0.00 | 0.00 | 0.00 | 58 | 1021.2 |
| 20260509160511 | 50 | 319 | 1.7 | 5.2 | 0.00 | 0.00 | 0.00 | 58 | 1021.1 |
| 20260509160508 | 51 | 319 | 1.7 | 5.2 | 0.00 | 0.00 | 0.00 | 58 | 1022.4 |
| 20260509160230 | 51 | 311 | 1.7 | 6.1 | 0.00 | 0.00 | 0.00 | 58 | 1022.3 |
| 20260509160024 | 50 | 304 | 0.9 | 6.1 | 0.00 | 0.00 | 0.00 | 58 | 1021.1 |
| 20260509155509 | 50 | 275 | 2.6 | 6.1 | 0.00 | 0.00 | 0.00 | 58 | 1022.5 |
| 20260509155011 | 50 | 306 | 2.6 | 5.2 | 0.00 | 0.00 | 0.00 | 57 | 1021.0 |
| 20260509155008 | 50 | 306 | 2.6 | 5.2 | 0.00 | 0.00 | 0.00 | 58 | 1022.7 |
| 20260509154508 | 51 | 313 | 1.7 | 4.3 | 0.00 | 0.00 | 0.00 | 59 | 1022.5 |
| 20260509154504 | 50 | 313 | 1.7 | 4.3 | 0.00 | 0.00 | 0.00 | 58 | 1020.9 |
| 20260509154008 | 50 | 303 | 1.7 | 3.5 | 0.00 | 0.00 | 0.00 | 58 | 1022.4 |
| 20260509154004 | 49 | 303 | 0.9 | 3.5 | 0.00 | 0.00 | 0.00 | 58 | 1020.8 |
| 20260509153508 | 50 | 304 | 1.7 | 3.5 | 0.00 | 0.00 | 0.00 | 57 | 1022.4 |
| 20260509153503 | 49 | 304 | 1.7 | 3.5 | 0.00 | 0.00 | 0.00 | 57 | 1020.9 |
| 20260509153012 | 49 | 275 | 0.9 | 3.5 | 0.00 | 0.00 | 0.00 | 57 | 1020.8 |
| 20260509153008 | 50 | 275 | 1.7 | 3.5 | 0.00 | 0.00 | 0.00 | 57 | 1022.3 |
| 20260509152505 | 49 | 292 | 1.7 | 3.5 | 0.00 | 0.00 | 0.00 | 59 | 1022.4 |
| 20260509152503 | 49 | 292 | 1.7 | 3.5 | 0.00 | 0.00 | 0.00 | 58 | 1020.8 |
| 20260509152003 | 48 | 105 | 0.0 | 5.2 | 0.00 | 0.00 | 0.00 | 59 | 1020.9 |
| 20260509151505 | 48 | 105 | 1.7 | 5.2 | 0.00 | 0.00 | 0.00 | 61 | 1022.3 |
| 20260509151005 | 48 | 103 | 0.0 | 5.2 | 0.00 | 0.00 | 0.00 | 62 | 1022.3 |
| 20260509151002 | 47 | 105 | 2.6 | 5.2 | 0.00 | 0.00 | 0.00 | 62 | 1020.7 |
| 20260509150505 | 47 | 257 | 0.0 | 1.7 | 0.00 | 0.00 | 0.00 | 61 | 1022.3 |
| 20260509150503 | 47 | 257 | 0.0 | 1.7 | 0.00 | 0.00 | 0.00 | 60 | 1020.7 |
| 20260509150006 | 47 | 257 | 0.9 | 2.6 | 0.00 | 0.00 | 0.00 | 60 | 1022.3 |
| 20260509150003 | 46 | 257 | 0.0 | 2.6 | 0.00 | 0.00 | 0.00 | 60 | 1020.8 |
| 20260509145505 | 46 | 255 | 0.9 | 2.6 | 0.00 | 0.00 | 0.00 | 61 | 1020.8 |
| 20260509145503 | 46 | 255 | 0.9 | 2.6 | 0.00 | 0.00 | 0.00 | 61 | 1022.2 |
| 20260509145222 | 46 | 233 | 0.0 | 2.6 | 0.00 | 0.00 | 0.00 | 61 | 1022.1 |
| 20260509145003 | 45 | 233 | 0.0 | 2.6 | 0.00 | 0.00 | 0.00 | 61 | 1020.7 |
| 20260509144506 | 45 | 283 | 0.0 | 2.6 | 0.00 | 0.00 | 0.00 | 61 | 1020.7 |
| 20260509144457 | 46 | 283 | 0.0 | 2.6 | 0.00 | 0.00 | 0.00 | 61 | 1022.0 |
| 20260509144002 | 45 | 279 | 0.0 | 1.7 | 0.00 | 0.00 | 0.00 | 61 | 1020.6 |
| 20260509143951 | 45 | 279 | 0.9 | 1.7 | 0.00 | 0.00 | 0.00 | 62 | 1022.0 |
| 20260509143507 | 45 | 281 | 0.9 | 2.6 | 0.00 | 0.00 | 0.00 | 61 | 1020.6 |
| 20260509143446 | 45 | 281 | 0.9 | 2.6 | 0.00 | 0.00 | 0.00 | 63 | 1022.0 |
| 20260509143006 | 44 | 310 | 0.0 | 3.5 | 0.00 | 0.00 | 0.00 | 63 | 1020.5 |
| 20260509142939 | 45 | 310 | 0.9 | 3.5 | 0.00 | 0.00 | 0.00 | 64 | 1021.9 |
| 20260509142505 | 44 | 311 | 0.9 | 3.5 | 0.00 | 0.00 | 0.00 | 64 | 1020.4 |
| 20260509142433 | 44 | 323 | 0.9 | 3.5 | 0.00 | 0.00 | 0.00 | 65 | 1021.9 |
| 20260509142004 | 43 | 248 | 0.9 | 3.5 | 0.00 | 0.00 | 0.00 | 65 | 1020.4 |
| 20260509141927 | 44 | 252 | 0.0 | 3.5 | 0.00 | 0.00 | 0.00 | 65 | 1021.9 |
| 20260509141513 | 42 | 311 | 0.0 | 2.6 | 0.00 | 0.00 | 0.00 | 70 | 1020.4 |
| 20260509141425 | 43 | 311 | 0.9 | 2.6 | 0.00 | 0.00 | 0.00 | 70 | 1021.9 |
| 20260509141004 | 42 | 311 | 0.0 | 3.5 | 0.00 | 0.00 | 0.00 | 68 | 1020.3 |
| 20260509140911 | 42 | 311 | 0.9 | 3.5 | 0.00 | 0.00 | 0.00 | 70 | 1021.7 |
| 20260509140505 | 41 | 311 | 0.0 | 3.5 | 0.00 | 0.00 | 0.00 | 71 | 1020.2 |
| 20260509140405 | 41 | 311 | 1.7 | 3.5 | 0.00 | 0.00 | 0.00 | 72 | 1021.7 |
| 20260509140122 | 39 | 292 | 0.9 | 2.6 | 0.00 | 0.00 | 0.00 | 77 | 1021.5 |
| 20260509140004 | 39 | 293 | 0.9 | 2.6 | 0.00 | 0.00 | 0.00 | 76 | 1020.2 |
| 20260509135503 | 38 | 312 | 0.9 | 2.6 | 0.00 | 0.00 | 0.00 | 79 | 1020.1 |
| 20260509135353 | 38 | 275 | 0.9 | 2.6 | 0.00 | 0.00 | 0.00 | 79 | 1021.5 |
| 20260509135109 | 37 | 275 | 0.0 | 2.6 | 0.00 | 0.00 | 0.00 | 82 | 1021.5 |
| 20260509135002 | 37 | 275 | 0.0 | 2.6 | 0.00 | 0.00 | 0.00 | 81 | 1020.1 |
| 20260509134603 | 37 | 274 | 0.0 | 2.6 | 0.00 | 0.00 | 0.00 | 82 | 1021.5 |
| 20260509134508 | 36 | 274 | 0.0 | 2.6 | 0.00 | 0.00 | 0.00 | 82 | 1020.2 |
| 20260509134003 | 36 | 200 | 0.0 | 0.0 | 0.00 | 0.00 | 0.00 | 83 | 1020.2 |
| 20260509133835 | 36 | 170 | 0.0 | 0.0 | 0.00 | 0.00 | 0.00 | 83 | 1021.5 |
| 20260509133503 | 35 | 170 | 0.0 | 0.0 | 0.00 | 0.00 | 0.00 | 82 | 1020.1 |
| 20260509133330 | 36 | 101 | 0.0 | 0.0 | 0.00 | 0.00 | 0.00 | 82 | 1021.4 |
| 20260509133010 | 35 | 101 | 0.0 | 0.9 | 0.00 | 0.00 | 0.00 | 82 | 1020.1 |
| 20260509132823 | 35 | 101 | 0.0 | 0.9 | 0.00 | 0.00 | 0.00 | 83 | 1021.4 |
| 20260509132503 | 35 | 101 | 0.0 | 1.7 | 0.00 | 0.00 | 0.00 | 81 | 1020.1 |
| 20260509132317 | 35 | 101 | 0.0 | 1.7 | 0.00 | 0.00 | 0.00 | 83 | 1021.5 |
| 20260509132002 | 35 | 101 | 0.0 | 1.7 | 0.00 | 0.00 | 0.00 | 81 | 1020.1 |
| 20260509131811 | 35 | 101 | 0.0 | 1.7 | 0.00 | 0.00 | 0.00 | 81 | 1021.3 |
| 20260509131517 | 34 | 101 | 0.0 | 3.5 | 0.00 | 0.00 | 0.00 | 82 | 1019.9 |
| 20260509131304 | 35 | 101 | 0.9 | 5.2 | 0.00 | 0.00 | 0.00 | 82 | 1021.3 |
| 20260509131007 | 34 | 101 | 0.0 | 5.2 | 0.00 | 0.00 | 0.00 | 81 | 1019.8 |
| 20260509130759 | 35 | 101 | 0.9 | 5.2 | 0.00 | 0.00 | 0.00 | 84 | 1021.2 |
| 20260509130505 | 34 | 107 | 2.6 | 5.2 | 0.00 | 0.00 | 0.00 | 82 | 1019.8 |
| 20260509130253 | 34 | 98 | 0.9 | 2.6 | 0.00 | 0.00 | 0.00 | 80 | 1021.2 |
| 20260509130012 | 34 | 265 | 0.9 | 2.6 | 0.00 | 0.00 | 0.00 | 80 | 1021.2 |
| 20260509130007 | 34 | 265 | 0.0 | 2.6 | 0.00 | 0.00 | 0.00 | 80 | 1019.8 |
| 20260509125509 | 34 | 264 | 0.0 | 2.6 | 0.00 | 0.00 | 0.00 | 79 | 1019.8 |
| 20260509125242 | 34 | 264 | 0.0 | 2.6 | 0.00 | 0.00 | 0.00 | 79 | 1021.3 |
| 20260509125005 | 34 | 264 | 0.0 | 2.6 | 0.00 | 0.00 | 0.00 | 79 | 1019.8 |
| 20260509124735 | 34 | 271 | 0.0 | 0.9 | 0.00 | 0.00 | 0.00 | 79 | 1021.2 |
| 20260509124506 | 34 | 271 | 0.0 | 2.6 | 0.00 | 0.00 | 0.00 | 79 | 1019.6 |
| 20260509124450 | 34 | 271 | 0.9 | 2.6 | 0.00 | 0.00 | 0.00 | 80 | 1021.2 |
| 20260509124003 | 34 | 271 | 0.0 | 2.6 | 0.00 | 0.00 | 0.00 | 78 | 1019.9 |
| 20260509123723 | 34 | 271 | 0.9 | 2.6 | 0.00 | 0.00 | 0.00 | 79 | 1021.3 |
| 20260509123502 | 34 | 265 | 0.9 | 2.6 | 0.00 | 0.00 | 0.00 | 78 | 1019.9 |
| 20260509123217 | 34 | 265 | 0.0 | 2.6 | 0.00 | 0.00 | 0.00 | 77 | 1021.3 |
| 20260509123010 | 34 | 265 | 0.0 | 2.6 | 0.00 | 0.00 | 0.00 | 76 | 1019.9 |
| 20260509122937 | 35 | 287 | 0.0 | 0.0 | 0.00 | 0.00 | 0.00 | 76 | 1021.2 |
| 20260509122503 | 34 | 287 | 0.0 | 0.0 | 0.00 | 0.00 | 0.00 | 75 | 1019.9 |
| 20260509122205 | 35 | 287 | 0.0 | 0.0 | 0.00 | 0.00 | 0.00 | 75 | 1021.2 |
| 20260509122003 | 35 | 287 | 0.0 | 0.0 | 0.00 | 0.00 | 0.00 | 75 | 1019.9 |
| 20260509121659 | 35 | 286 | 0.0 | 0.0 | 0.00 | 0.00 | 0.00 | 75 | 1021.1 |
| 20260509121523 | 35 | 286 | 0.0 | 0.0 | 0.00 | 0.00 | 0.00 | 75 | 1019.9 |
| 20260509121419 | 35 | 286 | 0.0 | 0.0 | 0.00 | 0.00 | 0.00 | 74 | 1021.1 |
| 20260509121004 | 35 | 286 | 0.0 | 0.0 | 0.00 | 0.00 | 0.00 | 74 | 1019.8 |
| 20260509120646 | 36 | 286 | 0.0 | 0.0 | 0.00 | 0.00 | 0.00 | 74 | 1021.1 |
| 20260509120505 | 35 | 286 | 0.0 | 0.0 | 0.00 | 0.00 | 0.00 | 73 | 1019.9 |
| 20260509120141 | 36 | 286 | 0.0 | 0.0 | 0.00 | 0.00 | 0.00 | 75 | 1021.1 |
| 20260509120018 | 35 | 286 | 0.0 | 0.0 | 0.00 | 0.00 | 0.00 | 73 | 1019.9 |
| 20260509115635 | 36 | 286 | 0.0 | 0.0 | 0.00 | 0.00 | 0.00 | 74 | 1021.1 |
| 20260509115506 | 36 | 286 | 0.0 | 0.0 | 0.00 | 0.00 | 0.00 | 73 | 1019.9 |
| 20260509115129 | 36 | 286 | 0.0 | 0.0 | 0.00 | 0.00 | 0.00 | 73 | 1021.1 |
| 20260509115004 | 36 | 286 | 0.0 | 0.0 | 0.00 | 0.00 | 0.00 | 73 | 1019.8 |
| 20260509114623 | 37 | 286 | 0.0 | 0.0 | 0.00 | 0.00 | 0.00 | 74 | 1021.2 |
| 20260509114516 | 36 | 286 | 0.0 | 0.0 | 0.00 | 0.00 | 0.00 | 73 | 1019.9 |
| 20260509114117 | 37 | 286 | 0.0 | 0.0 | 0.00 | 0.00 | 0.00 | 74 | 1021.2 |
| 20260509114007 | 36 | 286 | 0.0 | 0.0 | 0.00 | 0.00 | 0.00 | 73 | 1019.9 |
| 20260509113611 | 37 | 286 | 0.0 | 0.0 | 0.00 | 0.00 | 0.00 | 73 | 1021.2 |
| 20260509113509 | 36 | 286 | 0.0 | 0.0 | 0.00 | 0.00 | 0.00 | 72 | 1019.9 |
| 20260509113106 | 37 | 285 | 0.0 | 0.0 | 0.00 | 0.00 | 0.00 | 73 | 1021.3 |
| 20260509113013 | 36 | 286 | 0.0 | 0.0 | 0.00 | 0.00 | 0.00 | 73 | 1020.1 |
| 20260509112600 | 37 | 285 | 0.0 | 0.0 | 0.00 | 0.00 | 0.00 | 73 | 1021.3 |
| 20260509112505 | 36 | 285 | 0.0 | 0.0 | 0.00 | 0.00 | 0.00 | 73 | 1020.0 |
| 20260509112054 | 37 | 285 | 0.0 | 1.7 | 0.00 | 0.00 | 0.00 | 73 | 1021.2 |
| 20260509112002 | 37 | 285 | 0.0 | 1.7 | 0.00 | 0.00 | 0.00 | 73 | 1019.9 |
| 20260509111547 | 37 | 285 | 0.0 | 1.7 | 0.00 | 0.00 | 0.00 | 73 | 1021.2 |
| 20260509111510 | 37 | 285 | 0.0 | 2.6 | 0.00 | 0.00 | 0.00 | 72 | 1019.9 |
| 20260509111043 | 37 | 286 | 0.0 | 2.6 | 0.00 | 0.00 | 0.00 | 72 | 1021.2 |
| 20260509111004 | 37 | 285 | 0.0 | 2.6 | 0.00 | 0.00 | 0.00 | 72 | 1019.9 |
| 20260509110535 | 38 | 286 | 0.9 | 2.6 | 0.00 | 0.00 | 0.00 | 72 | 1021.2 |
| 20260509110503 | 37 | 286 | 0.0 | 2.6 | 0.00 | 0.00 | 0.00 | 71 | 1019.8 |
| 20260509110029 | 38 | 300 | 0.9 | 2.6 | 0.00 | 0.00 | 0.00 | 72 | 1021.1 |
| 20260509110013 | 37 | 300 | 0.0 | 2.6 | 0.00 | 0.00 | 0.00 | 71 | 1019.8 |
| 20260509105747 | 38 | 300 | 0.0 | 2.6 | 0.00 | 0.00 | 0.00 | 71 | 1021.2 |
| 20260509105504 | 37 | 300 | 0.0 | 2.6 | 0.00 | 0.00 | 0.00 | 70 | 1019.8 |
| 20260509105017 | 38 | 300 | 0.0 | 2.6 | 0.00 | 0.00 | 0.00 | 71 | 1021.1 |
| 20260509105008 | 38 | 300 | 0.0 | 2.6 | 0.00 | 0.00 | 0.00 | 70 | 1019.8 |
| 20260509104229 | 38 | 301 | 0.0 | 2.6 | 0.00 | 0.00 | 0.00 | 69 | 1020.9 |
| 20260509104006 | 38 | 301 | 0.0 | 2.6 | 0.00 | 0.00 | 0.00 | 69 | 1019.5 |
| 20260509103504 | 38 | 301 | 0.0 | 1.7 | 0.00 | 0.00 | 0.00 | 68 | 1019.6 |
| 20260509103500 | 39 | 301 | 0.0 | 1.7 | 0.00 | 0.00 | 0.00 | 69 | 1020.9 |
| 20260509103022 | 38 | 302 | 0.0 | 1.7 | 0.00 | 0.00 | 0.00 | 68 | 1019.5 |
| 20260509102954 | 39 | 302 | 0.0 | 1.7 | 0.00 | 0.00 | 0.00 | 69 | 1020.9 |
| 20260509102506 | 39 | 302 | 0.0 | 0.9 | 0.00 | 0.00 | 0.00 | 68 | 1019.4 |
| 20260509102447 | 39 | 302 | 0.0 | 0.0 | 0.00 | 0.00 | 0.00 | 68 | 1020.8 |
| 20260509102205 | 39 | 302 | 0.0 | 1.7 | 0.00 | 0.00 | 0.00 | 68 | 1020.9 |
| 20260509102003 | 39 | 302 | 0.0 | 1.7 | 0.00 | 0.00 | 0.00 | 67 | 1019.4 |
| 20260509101518 | 39 | 302 | 0.0 | 1.7 | 0.00 | 0.00 | 0.00 | 67 | 1019.4 |
| 20260509101435 | 40 | 302 | 0.0 | 1.7 | 0.00 | 0.00 | 0.00 | 67 | 1020.9 |
| 20260509101007 | 39 | 302 | 0.0 | 1.7 | 0.00 | 0.00 | 0.00 | 67 | 1019.3 |
| 20260509100929 | 40 | 302 | 0.0 | 1.7 | 0.00 | 0.00 | 0.00 | 67 | 1020.8 |
| 20260509100506 | 39 | 302 | 0.0 | 2.6 | 0.00 | 0.00 | 0.00 | 67 | 1019.3 |
| 20260509100427 | 40 | 302 | 0.9 | 2.6 | 0.00 | 0.00 | 0.00 | 67 | 1020.7 |
| 20260509100144 | 40 | 302 | 0.9 | 2.6 | 0.00 | 0.00 | 0.00 | 66 | 1020.7 |
| 20260509100025 | 39 | 302 | 0.9 | 2.6 | 0.00 | 0.00 | 0.00 | 66 | 1019.2 |
| 20260509095503 | 39 | 303 | 0.0 | 3.5 | 0.00 | 0.00 | 0.00 | 67 | 1019.3 |
| 20260509095427 | 40 | 303 | 0.0 | 3.5 | 0.00 | 0.00 | 0.00 | 67 | 1020.7 |
| 20260509095006 | 39 | 303 | 0.0 | 3.5 | 0.00 | 0.00 | 0.00 | 66 | 1019.3 |
| 20260509094925 | 40 | 303 | 0.9 | 3.5 | 0.00 | 0.00 | 0.00 | 67 | 1020.7 |
| 20260509094521 | 40 | 254 | 0.0 | 1.7 | 0.00 | 0.00 | 0.00 | 66 | 1019.2 |
| 20260509094423 | 40 | 254 | 0.0 | 1.7 | 0.00 | 0.00 | 0.00 | 66 | 1020.7 |
| 20260509094005 | 40 | 254 | 0.0 | 1.7 | 0.00 | 0.00 | 0.00 | 65 | 1019.2 |
| 20260509093506 | 40 | 254 | 0.0 | 1.7 | 0.00 | 0.00 | 0.00 | 65 | 1019.3 |
| 20260509093420 | 40 | 254 | 0.0 | 1.7 | 0.00 | 0.00 | 0.00 | 65 | 1020.7 |
| 20260509093023 | 40 | 252 | 0.0 | 1.7 | 0.00 | 0.00 | 0.00 | 65 | 1019.2 |
| 20260509092920 | 41 | 265 | 0.0 | 1.7 | 0.00 | 0.00 | 0.00 | 66 | 1020.7 |
| 20260509092648 | 41 | 265 | 0.0 | 1.7 | 0.00 | 0.00 | 0.00 | 65 | 1020.7 |
| 20260509092505 | 40 | 265 | 0.0 | 1.7 | 0.00 | 0.00 | 0.00 | 65 | 1019.1 |
| 20260509092143 | 41 | 265 | 0.9 | 2.6 | 0.00 | 0.00 | 0.00 | 65 | 1020.6 |
| 20260509092005 | 40 | 265 | 0.0 | 2.6 | 0.00 | 0.00 | 0.00 | 65 | 1019.1 |
| 20260509091524 | 40 | 265 | 0.0 | 2.6 | 0.00 | 0.00 | 0.00 | 64 | 1019.1 |
| 20260509091420 | 41 | 265 | 0.0 | 2.6 | 0.00 | 0.00 | 0.00 | 64 | 1020.6 |
| 20260509091009 | 40 | 296 | 0.0 | 0.0 | 0.00 | 0.00 | 0.00 | 64 | 1019.1 |
| 20260509090919 | 41 | 296 | 0.0 | 0.0 | 0.00 | 0.00 | 0.00 | 64 | 1020.6 |
| 20260509090505 | 40 | 296 | 0.0 | 0.0 | 0.00 | 0.00 | 0.00 | 65 | 1019.1 |
| 20260509090419 | 40 | 296 | 0.0 | 0.0 | 0.00 | 0.00 | 0.00 | 65 | 1020.6 |
| 20260509090024 | 40 | 296 | 0.0 | 0.0 | 0.00 | 0.00 | 0.00 | 65 | 1019.0 |
| 20260509085915 | 41 | 248 | 0.0 | 0.0 | 0.00 | 0.00 | 0.00 | 65 | 1020.7 |
| 20260509085506 | 41 | 248 | 0.0 | 0.0 | 0.00 | 0.00 | 0.00 | 64 | 1019.0 |
| 20260509085415 | 41 | 248 | 0.0 | 0.0 | 0.00 | 0.00 | 0.00 | 64 | 1020.5 |
| 20260509085004 | 41 | 248 | 0.0 | 0.0 | 0.00 | 0.00 | 0.00 | 63 | 1019.0 |
| 20260509084914 | 42 | 248 | 0.0 | 0.0 | 0.00 | 0.00 | 0.00 | 63 | 1020.5 |
| 20260509084639 | 42 | 248 | 0.0 | 0.0 | 0.00 | 0.00 | 0.00 | 63 | 1020.6 |
| 20260509084529 | 41 | 248 | 0.0 | 0.0 | 0.00 | 0.00 | 0.00 | 63 | 1019.0 |
| 20260509084139 | 42 | 248 | 0.0 | 0.0 | 0.00 | 0.00 | 0.00 | 63 | 1020.7 |
| 20260509084007 | 42 | 248 | 0.0 | 0.0 | 0.00 | 0.00 | 0.00 | 62 | 1019.0 |
| 20260509083635 | 42 | 246 | 0.0 | 0.0 | 0.00 | 0.00 | 0.00 | 62 | 1020.7 |
| 20260509083505 | 42 | 246 | 0.0 | 0.0 | 0.00 | 0.00 | 0.00 | 62 | 1019.1 |
| 20260509083019 | 42 | 246 | 0.0 | 0.0 | 0.00 | 0.00 | 0.00 | 61 | 1019.1 |
| 20260509082915 | 42 | 246 | 0.0 | 0.0 | 0.00 | 0.00 | 0.00 | 63 | 1020.6 |
| 20260509082634 | 42 | 219 | 0.0 | 0.0 | 0.00 | 0.00 | 0.00 | 62 | 1020.7 |
| 20260509082509 | 42 | 219 | 0.0 | 0.0 | 0.00 | 0.00 | 0.00 | 61 | 1019.0 |
| 20260509082005 | 42 | 219 | 0.0 | 0.0 | 0.00 | 0.00 | 0.00 | 61 | 1019.0 |
| 20260509081915 | 42 | 219 | 0.0 | 0.0 | 0.00 | 0.00 | 0.00 | 62 | 1020.6 |
| 20260509081536 | 42 | 219 | 0.0 | 0.0 | 0.00 | 0.00 | 0.00 | 62 | 1018.9 |
| 20260509081415 | 42 | 219 | 0.0 | 0.0 | 0.00 | 0.00 | 0.00 | 61 | 1020.5 |
| 20260509081006 | 42 | 219 | 0.0 | 2.6 | 0.00 | 0.00 | 0.00 | 60 | 1018.9 |
| 20260509080916 | 43 | 219 | 0.9 | 2.6 | 0.00 | 0.00 | 0.00 | 61 | 1020.4 |
| 20260509080509 | 43 | 219 | 0.0 | 2.6 | 0.00 | 0.00 | 0.00 | 61 | 1018.8 |
| 20260509080415 | 43 | 219 | 0.9 | 2.6 | 0.00 | 0.00 | 0.00 | 61 | 1020.3 |
| 20260509080134 | 43 | 139 | 0.9 | 3.5 | 0.00 | 0.00 | 0.00 | 61 | 1020.1 |
| 20260509080024 | 42 | 139 | 0.0 | 3.5 | 0.00 | 0.00 | 0.00 | 61 | 1018.7 |
| 20260509075510 | 42 | 139 | 0.0 | 3.5 | 0.00 | 0.00 | 0.00 | 61 | 1018.7 |
| 20260509075413 | 43 | 139 | 0.9 | 3.5 | 0.00 | 0.00 | 0.00 | 62 | 1020.1 |
| 20260509075009 | 42 | 130 | 0.0 | 3.5 | 0.00 | 0.00 | 0.00 | 61 | 1018.7 |
| 20260509074913 | 42 | 130 | 0.9 | 4.3 | 0.00 | 0.00 | 0.00 | 61 | 1020.1 |
| 20260509074530 | 41 | 288 | 0.0 | 4.3 | 0.00 | 0.00 | 0.00 | 62 | 1018.8 |
| 20260509074412 | 42 | 288 | 0.9 | 4.3 | 0.00 | 0.00 | 0.00 | 62 | 1020.0 |
| 20260509074009 | 40 | 220 | 1.7 | 4.3 | 0.00 | 0.00 | 0.00 | 64 | 1018.8 |
| 20260509073913 | 40 | 286 | 0.0 | 3.5 | 0.00 | 0.00 | 0.00 | 64 | 1020.1 |
| 20260509073506 | 40 | 303 | 0.0 | 0.0 | 0.00 | 0.00 | 0.00 | 64 | 1018.7 |
| 20260509073412 | 40 | 303 | 0.0 | 0.0 | 0.00 | 0.00 | 0.00 | 64 | 1020.0 |
| 20260509073024 | 40 | 303 | 0.0 | 0.0 | 0.00 | 0.00 | 0.00 | 63 | 1018.7 |
| 20260509072906 | 41 | 303 | 0.0 | 0.0 | 0.00 | 0.00 | 0.00 | 64 | 1020.0 |
| 20260509072508 | 40 | 303 | 0.0 | 2.6 | 0.00 | 0.00 | 0.00 | 63 | 1018.6 |
| 20260509072400 | 41 | 303 | 0.0 | 2.6 | 0.00 | 0.00 | 0.00 | 63 | 1020.0 |
| 20260509072013 | 40 | 303 | 0.0 | 2.6 | 0.00 | 0.00 | 0.00 | 63 | 1018.7 |
| 20260509071854 | 41 | 303 | 0.0 | 2.6 | 0.00 | 0.00 | 0.00 | 63 | 1019.9 |
| 20260509071520 | 41 | 303 | 0.0 | 0.9 | 0.00 | 0.00 | 0.00 | 62 | 1018.5 |
| 20260509071349 | 41 | 303 | 0.0 | 0.9 | 0.00 | 0.00 | 0.00 | 63 | 1019.9 |
| 20260509071005 | 41 | 303 | 0.0 | 2.6 | 0.00 | 0.00 | 0.00 | 62 | 1018.5 |
| 20260509070843 | 42 | 303 | 0.0 | 2.6 | 0.00 | 0.00 | 0.00 | 62 | 1019.7 |
| 20260509070509 | 41 | 303 | 0.0 | 2.6 | 0.00 | 0.00 | 0.00 | 61 | 1018.4 |
| 20260509070336 | 42 | 303 | 0.9 | 2.6 | 0.00 | 0.00 | 0.00 | 61 | 1019.7 |
| 20260509070023 | 42 | 303 | 0.0 | 1.7 | 0.00 | 0.00 | 0.00 | 61 | 1018.4 |
| 20260509065831 | 42 | 303 | 0.0 | 1.7 | 0.00 | 0.00 | 0.00 | 60 | 1019.7 |
| 20260509065510 | 42 | 303 | 0.0 | 3.5 | 0.00 | 0.00 | 0.00 | 60 | 1018.4 |
| 20260509065325 | 42 | 303 | 0.9 | 3.5 | 0.00 | 0.00 | 0.00 | 61 | 1019.7 |
| 20260509065042 | 43 | 303 | 0.9 | 3.5 | 0.00 | 0.00 | 0.00 | 60 | 1019.6 |
| 20260509065009 | 42 | 303 | 0.0 | 3.5 | 0.00 | 0.00 | 0.00 | 62 | 1018.4 |
| 20260509064503 | 42 | 290 | 0.0 | 3.5 | 0.00 | 0.00 | 0.00 | 60 | 1018.4 |
| 20260509064313 | 43 | 290 | 0.0 | 3.5 | 0.00 | 0.00 | 0.00 | 58 | 1019.7 |
| 20260509064003 | 42 | 300 | 0.0 | 0.0 | 0.00 | 0.00 | 0.00 | 59 | 1018.4 |
| 20260509063807 | 42 | 302 | 0.0 | 0.0 | 0.00 | 0.00 | 0.00 | 60 | 1019.6 |
| 20260509063503 | 42 | 302 | 0.0 | 0.0 | 0.00 | 0.00 | 0.00 | 61 | 1018.3 |
| 20260509063302 | 42 | 302 | 0.0 | 0.0 | 0.00 | 0.00 | 0.00 | 60 | 1019.6 |
| 20260509063010 | 42 | 302 | 0.0 | 0.0 | 0.00 | 0.00 | 0.00 | 60 | 1018.3 |
| 20260509062755 | 42 | 302 | 0.0 | 0.0 | 0.00 | 0.00 | 0.00 | 60 | 1019.6 |
| 20260509062505 | 42 | 302 | 0.0 | 0.0 | 0.00 | 0.00 | 0.00 | 60 | 1018.3 |
| 20260509062249 | 42 | 302 | 0.0 | 2.6 | 0.00 | 0.00 | 0.00 | 60 | 1019.6 |
| 20260509062003 | 42 | 302 | 0.0 | 3.5 | 0.00 | 0.00 | 0.00 | 59 | 1018.3 |
| 20260509061507 | 42 | 302 | 0.0 | 3.5 | 0.00 | 0.00 | 0.00 | 60 | 1018.3 |
| 20260509061237 | 43 | 275 | 0.0 | 2.6 | 0.00 | 0.00 | 0.00 | 59 | 1019.6 |
| 20260509061002 | 43 | 275 | 0.0 | 2.6 | 0.00 | 0.00 | 0.00 | 59 | 1018.3 |
| 20260509060731 | 43 | 275 | 0.0 | 2.6 | 0.00 | 0.00 | 0.00 | 59 | 1019.6 |
| 20260509060502 | 43 | 275 | 0.0 | 2.6 | 0.00 | 0.00 | 0.00 | 59 | 1018.2 |
| 20260509060445 | 43 | 275 | 0.0 | 2.6 | 0.00 | 0.00 | 0.00 | 60 | 1019.6 |
| 20260509060004 | 43 | 275 | 0.0 | 2.6 | 0.00 | 0.00 | 0.00 | 58 | 1018.2 |
| 20260509055719 | 44 | 215 | 0.0 | 0.9 | 0.00 | 0.00 | 0.00 | 58 | 1019.6 |
| 20260509055503 | 44 | 215 | 0.0 | 0.9 | 0.00 | 0.00 | 0.00 | 57 | 1018.1 |
| 20260509055213 | 45 | 215 | 0.0 | 0.9 | 0.00 | 0.00 | 0.00 | 58 | 1019.5 |
| 20260509055002 | 44 | 215 | 0.0 | 0.0 | 0.00 | 0.00 | 0.00 | 56 | 1018.1 |
| 20260509054707 | 45 | 215 | 0.0 | 1.7 | 0.00 | 0.00 | 0.00 | 57 | 1019.6 |
| 20260509054502 | 45 | 215 | 0.0 | 1.7 | 0.00 | 0.00 | 0.00 | 56 | 1018.1 |
| 20260509054420 | 46 | 215 | 0.0 | 1.7 | 0.00 | 0.00 | 0.00 | 56 | 1019.6 |
| 20260509054003 | 46 | 215 | 0.0 | 1.7 | 0.00 | 0.00 | 0.00 | 55 | 1018.1 |
| 20260509053655 | 47 | 215 | 0.0 | 1.7 | 0.00 | 0.00 | 0.00 | 55 | 1019.5 |
| 20260509053503 | 46 | 215 | 0.0 | 1.7 | 0.00 | 0.00 | 0.00 | 54 | 1018.0 |
| 20260509053149 | 47 | 215 | 0.0 | 2.6 | 0.00 | 0.00 | 0.00 | 55 | 1019.5 |
| 20260509053003 | 47 | 215 | 0.0 | 2.6 | 0.00 | 0.00 | 0.00 | 54 | 1018.0 |
| 20260509052643 | 48 | 215 | 0.9 | 2.6 | 0.00 | 0.00 | 0.00 | 52 | 1019.3 |
| 20260509052504 | 47 | 215 | 0.0 | 3.5 | 0.00 | 0.00 | 0.00 | 51 | 1017.9 |
| 20260509052138 | 48 | 240 | 0.9 | 3.5 | 0.00 | 0.00 | 0.00 | 52 | 1019.3 |
| 20260509052006 | 47 | 240 | 0.0 | 3.5 | 0.00 | 0.00 | 0.00 | 51 | 1017.8 |
| 20260509051853 | 48 | 253 | 0.9 | 3.5 | 0.00 | 0.00 | 0.00 | 51 | 1019.3 |
| 20260509051504 | 47 | 253 | 0.9 | 3.5 | 0.00 | 0.00 | 0.00 | 50 | 1017.7 |
| 20260509051125 | 48 | 313 | 0.9 | 3.5 | 0.00 | 0.00 | 0.00 | 51 | 1019.2 |
| 20260509051007 | 48 | 314 | 1.7 | 3.5 | 0.00 | 0.00 | 0.00 | 50 | 1017.7 |
| 20260509050619 | 48 | 284 | 0.0 | 2.6 | 0.00 | 0.00 | 0.00 | 51 | 1019.2 |
| 20260509050506 | 48 | 284 | 0.0 | 2.6 | 0.00 | 0.00 | 0.00 | 49 | 1017.6 |
| 20260509050113 | 49 | 287 | 0.0 | 0.9 | 0.00 | 0.00 | 0.00 | 52 | 1019.2 |
| 20260509050020 | 48 | 287 | 0.0 | 0.9 | 0.00 | 0.00 | 0.00 | 52 | 1017.6 |
| 20260509045608 | 49 | 286 | 0.0 | 0.9 | 0.00 | 0.00 | 0.00 | 51 | 1019.1 |
| 20260509045502 | 48 | 286 | 0.0 | 0.9 | 0.00 | 0.00 | 0.00 | 51 | 1017.6 |
| 20260509045101 | 49 | 286 | 0.0 | 1.7 | 0.00 | 0.00 | 0.00 | 52 | 1018.9 |
| 20260509045003 | 49 | 286 | 0.0 | 1.7 | 0.00 | 0.00 | 0.00 | 51 | 1017.4 |
| 20260509044555 | 49 | 286 | 0.9 | 2.6 | 0.00 | 0.00 | 0.00 | 49 | 1018.7 |
| 20260509044504 | 49 | 286 | 0.0 | 2.6 | 0.00 | 0.00 | 0.00 | 48 | 1017.3 |
| 20260509044050 | 50 | 312 | 0.0 | 2.6 | 0.00 | 0.00 | 0.00 | 48 | 1018.7 |
| 20260509044003 | 49 | 312 | 0.9 | 2.6 | 0.00 | 0.00 | 0.00 | 47 | 1017.4 |
| 20260509043543 | 50 | 223 | 0.0 | 1.7 | 0.00 | 0.00 | 0.00 | 49 | 1018.8 |
| 20260509043505 | 50 | 223 | 0.0 | 1.7 | 0.00 | 0.00 | 0.00 | 48 | 1017.4 |
| 20260509043037 | 50 | 223 | 0.0 | 1.7 | 0.00 | 0.00 | 0.00 | 48 | 1018.7 |
| 20260509043007 | 50 | 223 | 0.0 | 1.7 | 0.00 | 0.00 | 0.00 | 48 | 1017.3 |
| 20260509042531 | 51 | 223 | 0.9 | 1.7 | 0.00 | 0.00 | 0.00 | 48 | 1018.7 |
| 20260509042503 | 50 | 223 | 0.9 | 1.7 | 0.00 | 0.00 | 0.00 | 48 | 1017.2 |
| 20260509042025 | 51 | 223 | 0.9 | 3.5 | 0.00 | 0.00 | 0.00 | 48 | 1018.5 |
| 20260509042003 | 50 | 223 | 0.9 | 3.5 | 0.00 | 0.00 | 0.00 | 47 | 1017.1 |
| 20260509041519 | 50 | 223 | 0.9 | 3.5 | 0.00 | 0.00 | 0.00 | 49 | 1018.5 |
| 20260509041507 | 50 | 223 | 1.7 | 3.5 | 0.00 | 0.00 | 0.00 | 48 | 1017.1 |
| 20260509041237 | 51 | 235 | 0.9 | 3.5 | 0.00 | 0.00 | 0.00 | 49 | 1018.4 |
| 20260509041004 | 50 | 235 | 0.9 | 3.5 | 0.00 | 0.00 | 0.00 | 48 | 1017.1 |
| 20260509040507 | 51 | 235 | 0.0 | 3.5 | 0.00 | 0.00 | 0.00 | 48 | 1018.3 |
| 20260509040502 | 51 | 235 | 0.9 | 3.5 | 0.00 | 0.00 | 0.00 | 48 | 1017.0 |
| 20260509040003 | 51 | 180 | 0.0 | 0.0 | 0.00 | 0.00 | 0.00 | 48 | 1018.3 |
| 20260509035507 | 51 | 180 | 0.0 | 0.0 | 0.00 | 0.00 | 0.00 | 49 | 1016.9 |
| 20260509035455 | 51 | 180 | 0.0 | 0.0 | 0.00 | 0.00 | 0.00 | 49 | 1018.3 |
| 20260509035209 | 52 | 180 | 0.0 | 1.7 | 0.00 | 0.00 | 0.00 | 48 | 1018.2 |
| 20260509035004 | 51 | 180 | 0.0 | 1.7 | 0.00 | 0.00 | 0.00 | 47 | 1016.8 |
| 20260509034504 | 51 | 180 | 0.0 | 1.7 | 0.00 | 0.00 | 0.00 | 48 | 1016.7 |
| 20260509034444 | 52 | 180 | 0.0 | 1.7 | 0.00 | 0.00 | 0.00 | 49 | 1018.1 |
| 20260509034003 | 51 | 180 | 0.0 | 1.7 | 0.00 | 0.00 | 0.00 | 48 | 1016.6 |
| 20260509033937 | 52 | 180 | 0.0 | 1.7 | 0.00 | 0.00 | 0.00 | 50 | 1018.1 |
| 20260509033503 | 51 | 180 | 0.0 | 2.6 | 0.00 | 0.00 | 0.00 | 49 | 1016.6 |
| 20260509033431 | 52 | 180 | 0.9 | 2.6 | 0.00 | 0.00 | 0.00 | 49 | 1018.1 |
| 20260509033005 | 52 | 232 | 0.0 | 2.6 | 0.00 | 0.00 | 0.00 | 50 | 1016.5 |
| 20260509032925 | 52 | 232 | 0.0 | 2.6 | 0.00 | 0.00 | 0.00 | 50 | 1018.0 |
| 20260509032504 | 52 | 120 | 0.0 | 1.7 | 0.00 | 0.00 | 0.00 | 53 | 1016.4 |
| 20260509032419 | 52 | 120 | 0.0 | 2.6 | 0.00 | 0.00 | 0.00 | 53 | 1017.9 |
| 20260509032003 | 52 | 120 | 0.0 | 2.6 | 0.00 | 0.00 | 0.00 | 54 | 1016.3 |
| 20260509031913 | 53 | 120 | 0.9 | 2.6 | 0.00 | 0.00 | 0.00 | 55 | 1017.7 |
| 20260509031506 | 53 | 117 | 0.0 | 3.5 | 0.00 | 0.00 | 0.00 | 54 | 1016.1 |
| 20260509031413 | 54 | 119 | 0.9 | 3.5 | 0.00 | 0.00 | 0.00 | 54 | 1017.6 |
| 20260509031003 | 54 | 120 | 0.9 | 3.5 | 0.00 | 0.00 | 0.00 | 53 | 1016.1 |
| 20260509030911 | 54 | 117 | 0.9 | 3.5 | 0.00 | 0.00 | 0.00 | 53 | 1017.5 |
| 20260509030503 | 54 | 113 | 0.0 | 2.6 | 0.00 | 0.00 | 0.00 | 51 | 1016.0 |
| 20260509030411 | 55 | 108 | 0.9 | 2.6 | 0.00 | 0.00 | 0.00 | 52 | 1017.5 |
| 20260509030008 | 55 | 112 | 0.0 | 2.6 | 0.00 | 0.00 | 0.00 | 51 | 1016.0 |
| 20260509025912 | 55 | 112 | 0.9 | 2.6 | 0.00 | 0.00 | 0.00 | 51 | 1017.5 |
| 20260509025504 | 55 | 113 | 0.9 | 2.6 | 0.00 | 0.00 | 0.00 | 49 | 1015.9 |
| 20260509025411 | 55 | 84 | 0.0 | 1.7 | 0.00 | 0.00 | 0.00 | 49 | 1017.4 |
| 20260509025006 | 55 | 257 | 0.0 | 0.9 | 0.00 | 0.00 | 0.00 | 47 | 1015.8 |
| 20260509024911 | 56 | 256 | 0.0 | 0.9 | 0.00 | 0.00 | 0.00 | 47 | 1017.3 |
| 20260509024509 | 55 | 256 | 0.0 | 1.7 | 0.00 | 0.00 | 0.00 | 46 | 1015.8 |
| 20260509024410 | 56 | 256 | 0.9 | 2.6 | 0.00 | 0.00 | 0.00 | 47 | 1017.2 |
| 20260509024010 | 56 | 257 | 0.0 | 3.5 | 0.00 | 0.00 | 0.00 | 45 | 1015.7 |
| 20260509023910 | 56 | 257 | 1.7 | 5.2 | 0.00 | 0.00 | 0.00 | 45 | 1017.1 |
| 20260509023511 | 56 | 257 | 1.7 | 5.2 | 0.00 | 0.00 | 0.00 | 44 | 1015.6 |
| 20260509023409 | 56 | 257 | 0.9 | 5.2 | 0.00 | 0.00 | 0.00 | 44 | 1017.1 |
| 20260509023013 | 56 | 254 | 1.7 | 5.2 | 0.00 | 0.00 | 0.00 | 42 | 1015.7 |
| 20260509022907 | 57 | 296 | 1.7 | 3.5 | 0.00 | 0.00 | 0.00 | 42 | 1017.1 |
| 20260509022504 | 56 | 275 | 0.0 | 5.2 | 0.00 | 0.00 | 0.00 | 40 | 1015.5 |
| 20260509022407 | 57 | 275 | 1.7 | 5.2 | 0.00 | 0.00 | 0.00 | 39 | 1016.9 |
| 20260509022007 | 57 | 317 | 1.7 | 5.2 | 0.00 | 0.00 | 0.00 | 35 | 1015.4 |
| 20260509021906 | 57 | 293 | 1.7 | 5.2 | 0.00 | 0.00 | 0.00 | 35 | 1016.9 |
| 20260509021506 | 57 | 313 | 1.7 | 3.5 | 0.00 | 0.00 | 0.00 | 33 | 1015.5 |
| 20260509021407 | 58 | 255 | 0.9 | 3.5 | 0.00 | 0.00 | 0.00 | 33 | 1016.8 |
| 20260509021007 | 58 | 244 | 0.0 | 4.3 | 0.00 | 0.00 | 0.00 | 32 | 1015.4 |
| 20260509020903 | 58 | 244 | 1.7 | 4.3 | 0.00 | 0.00 | 0.00 | 32 | 1016.8 |
| 20260509020507 | 58 | 284 | 0.9 | 4.3 | 0.00 | 0.00 | 0.00 | 31 | 1015.4 |
| 20260509020403 | 59 | 287 | 1.7 | 4.3 | 0.00 | 0.00 | 0.00 | 31 | 1016.7 |
| 20260509020130 | 59 | 241 | 0.9 | 3.5 | 0.00 | 0.00 | 0.00 | 31 | 1016.6 |
| 20260509020006 | 59 | 269 | 0.9 | 3.5 | 0.00 | 0.00 | 0.00 | 30 | 1015.3 |
| 20260509015621 | 60 | 251 | 0.9 | 2.6 | 0.00 | 0.00 | 0.00 | 30 | 1016.6 |
| 20260509015504 | 59 | 247 | 0.0 | 2.6 | 0.00 | 0.00 | 0.00 | 29 | 1015.2 |
| 20260509015004 | 59 | 251 | 0.0 | 4.3 | 0.00 | 0.00 | 0.00 | 29 | 1015.0 |
| 20260509014903 | 60 | 251 | 1.7 | 4.3 | 0.00 | 0.00 | 0.00 | 29 | 1016.6 |
| 20260509014512 | 59 | 248 | 0.9 | 4.3 | 0.00 | 0.00 | 0.00 | 28 | 1015.2 |
| 20260509014403 | 60 | 248 | 1.7 | 4.3 | 0.00 | 0.00 | 0.00 | 29 | 1016.6 |
| 20260509014006 | 59 | 236 | 1.7 | 4.3 | 0.00 | 0.00 | 0.00 | 28 | 1015.2 |
| 20260509013503 | 60 | 241 | 0.9 | 4.3 | 0.00 | 0.00 | 0.00 | 28 | 1015.2 |
| 20260509013403 | 60 | 234 | 2.6 | 4.3 | 0.00 | 0.00 | 0.00 | 29 | 1016.7 |
| 20260509013033 | 60 | 279 | 1.7 | 4.3 | 0.00 | 0.00 | 0.00 | 28 | 1015.2 |
| 20260509012904 | 60 | 282 | 2.6 | 4.3 | 0.00 | 0.00 | 0.00 | 29 | 1016.6 |
| 20260509012509 | 60 | 283 | 1.7 | 4.3 | 0.00 | 0.00 | 0.00 | 29 | 1015.2 |
| 20260509012400 | 60 | 277 | 1.7 | 4.3 | 0.00 | 0.00 | 0.00 | 29 | 1016.6 |
| 20260509012004 | 60 | 238 | 0.9 | 4.3 | 0.00 | 0.00 | 0.00 | 30 | 1015.2 |
| 20260509011859 | 61 | 241 | 1.7 | 4.3 | 0.00 | 0.00 | 0.00 | 29 | 1016.7 |
| 20260509011512 | 60 | 270 | 0.0 | 4.3 | 0.00 | 0.00 | 0.00 | 31 | 1015.2 |
| 20260509011359 | 60 | 270 | 0.9 | 4.3 | 0.00 | 0.00 | 0.00 | 31 | 1016.7 |
| 20260509011006 | 60 | 294 | 1.7 | 4.3 | 0.00 | 0.00 | 0.00 | 31 | 1015.2 |
| 20260509010859 | 60 | 283 | 0.9 | 3.5 | 0.00 | 0.00 | 0.00 | 31 | 1016.6 |
| 20260509010510 | 60 | 246 | 0.0 | 6.1 | 0.00 | 0.00 | 0.00 | 34 | 1015.0 |
| 20260509010359 | 60 | 247 | 1.7 | 6.1 | 0.00 | 0.00 | 0.00 | 31 | 1016.7 |
| 20260509010008 | 60 | 247 | 1.7 | 7.0 | 0.00 | 0.00 | 0.00 | 30 | 1015.2 |
| 20260509005859 | 60 | 288 | 2.6 | 7.0 | 0.00 | 0.00 | 0.00 | 30 | 1016.7 |
| 20260509005506 | 60 | 310 | 2.6 | 7.0 | 0.00 | 0.00 | 0.00 | 30 | 1015.1 |
| 20260509005400 | 60 | 327 | 1.7 | 7.0 | 0.00 | 0.00 | 0.00 | 30 | 1016.7 |
| 20260509005004 | 60 | 235 | 0.9 | 6.1 | 0.00 | 0.00 | 0.00 | 30 | 1015.1 |
| 20260509004859 | 60 | 219 | 2.6 | 6.1 | 0.00 | 0.00 | 0.00 | 32 | 1016.7 |
| 20260509004508 | 60 | 193 | 1.7 | 6.1 | 0.00 | 0.00 | 0.00 | 31 | 1015.2 |
| 20260509004359 | 60 | 222 | 2.6 | 6.1 | 0.00 | 0.00 | 0.00 | 31 | 1016.8 |
| 20260509004004 | 60 | 237 | 2.6 | 6.1 | 0.00 | 0.00 | 0.00 | 32 | 1015.2 |
| 20260509003857 | 60 | 286 | 1.7 | 5.2 | 0.00 | 0.00 | 0.00 | 34 | 1016.8 |
| 20260509003508 | 59 | 296 | 0.9 | 7.0 | 0.00 | 0.00 | 0.00 | 35 | 1015.2 |
| 20260509003358 | 60 | 301 | 2.6 | 7.0 | 0.00 | 0.00 | 0.00 | 34 | 1016.9 |
| 20260509003017 | 59 | 335 | 2.6 | 7.0 | 0.00 | 0.00 | 0.00 | 34 | 1015.3 |
| 20260509002857 | 60 | 319 | 2.6 | 7.0 | 0.00 | 0.00 | 0.00 | 35 | 1016.9 |
| 20260509002503 | 59 | 240 | 2.6 | 7.8 | 0.00 | 0.00 | 0.00 | 36 | 1015.4 |
| 20260509002357 | 60 | 240 | 2.6 | 7.8 | 0.00 | 0.00 | 0.00 | 38 | 1016.9 |
| 20260509002007 | 60 | 232 | 1.7 | 7.8 | 0.00 | 0.00 | 0.00 | 38 | 1015.2 |
| 20260509001856 | 60 | 249 | 3.5 | 7.8 | 0.00 | 0.00 | 0.00 | 38 | 1016.9 |
| 20260509001518 | 60 | 240 | 2.6 | 7.8 | 0.00 | 0.00 | 0.00 | 38 | 1015.3 |
| 20260509001355 | 60 | 276 | 3.5 | 7.8 | 0.00 | 0.00 | 0.00 | 39 | 1016.9 |
| 20260509001007 | 60 | 236 | 3.5 | 7.8 | 0.00 | 0.00 | 0.00 | 36 | 1015.3 |
| 20260509000855 | 60 | 311 | 2.6 | 7.8 | 0.00 | 0.00 | 0.00 | 36 | 1016.9 |
| 20260509000504 | 60 | 255 | 1.7 | 7.0 | 0.00 | 0.00 | 0.00 | 35 | 1015.3 |
| 20260509000355 | 60 | 290 | 2.6 | 7.0 | 0.00 | 0.00 | 0.00 | 35 | 1016.8 |
| 20260509000018 | 60 | 231 | 1.7 | 6.1 | 0.00 | 0.00 | 0.00 | 35 | 1015.3 |
| 20260508235855 | 60 | 284 | 2.6 | 6.1 | 0.00 | 0.00 | 0.00 | 36 | 1016.9 |
| 20260508235508 | 59 | 261 | 1.7 | 6.1 | 0.00 | 0.00 | 0.00 | 35 | 1015.3 |
| 20260508235354 | 60 | 298 | 1.7 | 6.1 | 0.00 | 0.00 | 0.00 | 36 | 1016.8 |
| 20260508235006 | 59 | 314 | 2.6 | 8.7 | 0.00 | 0.00 | 0.00 | 34 | 1015.3 |
| 20260508234516 | 60 | 283 | 1.7 | 10.4 | 0.00 | 0.00 | 0.00 | 36 | 1015.3 |
| 20260508234353 | 60 | 281 | 2.6 | 10.4 | 0.00 | 0.00 | 0.00 | 36 | 1016.8 |
| 20260508234008 | 60 | 286 | 2.6 | 10.4 | 0.00 | 0.00 | 0.00 | 36 | 1015.2 |
| 20260508233852 | 60 | 335 | 2.6 | 10.4 | 0.00 | 0.00 | 0.00 | 39 | 1016.9 |
| 20260508233504 | 59 | 286 | 1.7 | 7.0 | 0.00 | 0.00 | 0.00 | 38 | 1015.3 |
| 20260508233353 | 60 | 238 | 2.6 | 7.0 | 0.00 | 0.00 | 0.00 | 40 | 1016.8 |
| 20260508233013 | 59 | 163 | 3.5 | 7.0 | 0.00 | 0.00 | 0.00 | 40 | 1015.3 |
| 20260508232851 | 60 | 240 | 1.7 | 7.0 | 0.00 | 0.00 | 0.00 | 41 | 1016.9 |
| 20260508232504 | 59 | 275 | 1.7 | 4.3 | 0.00 | 0.00 | 0.00 | 41 | 1015.3 |
| 20260508232350 | 59 | 298 | 0.9 | 4.3 | 0.00 | 0.00 | 0.00 | 42 | 1016.8 |
| 20260508232007 | 58 | 311 | 0.9 | 6.1 | 0.00 | 0.00 | 0.00 | 41 | 1015.3 |
| 20260508231844 | 59 | 297 | 2.6 | 6.1 | 0.00 | 0.00 | 0.00 | 43 | 1016.9 |
| 20260508231510 | 58 | 247 | 0.9 | 7.8 | 0.00 | 0.00 | 0.00 | 41 | 1015.3 |
| 20260508231338 | 59 | 247 | 3.5 | 7.8 | 0.00 | 0.00 | 0.00 | 41 | 1016.9 |
| 20260508231057 | 59 | 278 | 2.6 | 7.0 | 0.00 | 0.00 | 0.00 | 41 | 1017.1 |
| 20260508231004 | 58 | 281 | 3.5 | 7.8 | 0.00 | 0.00 | 0.00 | 41 | 1015.3 |
| 20260508230507 | 58 | 297 | 2.6 | 7.0 | 0.00 | 0.00 | 0.00 | 42 | 1015.3 |
| 20260508230326 | 58 | 263 | 1.7 | 7.0 | 0.00 | 0.00 | 0.00 | 46 | 1016.9 |
| 20260508230045 | 58 | 159 | 0.9 | 7.0 | 0.00 | 0.00 | 0.00 | 44 | 1015.3 |
| 20260508225820 | 58 | 190 | 2.6 | 7.0 | 0.00 | 0.00 | 0.00 | 44 | 1016.9 |
| 20260508225504 | 58 | 323 | 1.7 | 5.2 | 0.00 | 0.00 | 0.00 | 42 | 1015.3 |
| 20260508225315 | 58 | 289 | 2.6 | 5.2 | 0.00 | 0.00 | 0.00 | 43 | 1016.9 |
| 20260508225009 | 58 | 240 | 1.7 | 5.2 | 0.00 | 0.00 | 0.00 | 44 | 1015.5 |
| 20260508224809 | 59 | 259 | 1.7 | 5.2 | 0.00 | 0.00 | 0.00 | 44 | 1016.9 |
| 20260508224551 | 59 | 313 | 1.7 | 5.2 | 0.00 | 0.00 | 0.00 | 42 | 1015.3 |
| 20260508224302 | 59 | 281 | 1.7 | 5.2 | 0.00 | 0.00 | 0.00 | 43 | 1016.8 |
| 20260508224008 | 59 | 252 | 0.0 | 5.2 | 0.00 | 0.00 | 0.00 | 42 | 1015.3 |
| 20260508223756 | 59 | 314 | 1.7 | 5.2 | 0.00 | 0.00 | 0.00 | 42 | 1016.9 |
| 20260508223511 | 59 | 242 | 1.7 | 5.2 | 0.00 | 0.00 | 0.00 | 44 | 1015.4 |
| 20260508223250 | 60 | 250 | 0.9 | 5.2 | 0.00 | 0.00 | 0.00 | 44 | 1016.8 |
| 20260508223030 | 59 | 76 | 0.9 | 5.2 | 0.00 | 0.00 | 0.00 | 44 | 1015.4 |
| 20260508222744 | 60 | 173 | 1.7 | 5.2 | 0.00 | 0.00 | 0.00 | 45 | 1016.8 |
| 20260508222508 | 59 | 111 | 0.9 | 5.2 | 0.00 | 0.00 | 0.00 | 45 | 1015.4 |
| 20260508222238 | 59 | 232 | 1.7 | 5.2 | 0.00 | 0.00 | 0.00 | 44 | 1016.8 |
| 20260508222010 | 59 | 108 | 2.6 | 5.2 | 0.00 | 0.00 | 0.00 | 45 | 1015.3 |
| 20260508221732 | 59 | 236 | 1.7 | 5.2 | 0.00 | 0.00 | 0.00 | 45 | 1016.8 |
| 20260508221513 | 59 | 95 | 1.7 | 5.2 | 0.00 | 0.00 | 0.00 | 46 | 1015.3 |
| 20260508221226 | 59 | 188 | 1.7 | 7.0 | 0.00 | 0.00 | 0.00 | 46 | 1016.8 |
| 20260508221004 | 59 | 223 | 0.9 | 4.3 | 0.00 | 0.00 | 0.00 | 45 | 1015.3 |
| 20260508220720 | 59 | 212 | 1.7 | 7.0 | 0.00 | 0.00 | 0.00 | 46 | 1016.8 |
| 20260508220504 | 59 | 234 | 1.7 | 7.0 | 0.00 | 0.00 | 0.00 | 45 | 1015.3 |
| 20260508220214 | 59 | 275 | 1.7 | 7.0 | 0.00 | 0.00 | 0.00 | 46 | 1016.7 |
| 20260508220016 | 59 | 180 | 1.7 | 8.7 | 0.00 | 0.00 | 0.00 | 45 | 1015.4 |
| 20260508215708 | 60 | 237 | 2.6 | 8.7 | 0.00 | 0.00 | 0.00 | 44 | 1016.7 |
| 20260508215505 | 59 | 133 | 2.6 | 8.7 | 0.00 | 0.00 | 0.00 | 45 | 1015.3 |
| 20260508215202 | 60 | 161 | 2.6 | 8.7 | 0.00 | 0.00 | 0.00 | 44 | 1016.6 |
| 20260508215007 | 60 | 227 | 0.9 | 7.0 | 0.00 | 0.00 | 0.00 | 44 | 1015.2 |
| 20260508214917 | 60 | 119 | 2.6 | 7.0 | 0.00 | 0.00 | 0.00 | 45 | 1016.8 |
| 20260508214516 | 59 | 115 | 1.7 | 7.0 | 0.00 | 0.00 | 0.00 | 44 | 1015.2 |
| 20260508214150 | 60 | 178 | 2.6 | 7.0 | 0.00 | 0.00 | 0.00 | 43 | 1016.7 |
| 20260508214007 | 59 | 120 | 2.6 | 10.4 | 0.00 | 0.00 | 0.00 | 44 | 1015.2 |
| 20260508213644 | 60 | 118 | 1.7 | 10.4 | 0.00 | 0.00 | 0.00 | 44 | 1016.7 |
| 20260508213510 | 59 | 284 | 0.9 | 10.4 | 0.00 | 0.00 | 0.00 | 44 | 1015.2 |
| 20260508213138 | 59 | 122 | 1.7 | 10.4 | 0.00 | 0.00 | 0.00 | 44 | 1016.6 |
| 20260508213003 | 59 | 241 | 0.9 | 6.1 | 0.00 | 0.00 | 0.00 | 43 | 1015.2 |
| 20260508212633 | 59 | 275 | 1.7 | 6.1 | 0.00 | 0.00 | 0.00 | 42 | 1016.7 |
| 20260508212502 | 59 | 237 | 1.7 | 6.1 | 0.00 | 0.00 | 0.00 | 41 | 1015.2 |
| 20260508212126 | 60 | 238 | 2.6 | 8.7 | 0.00 | 0.00 | 0.00 | 40 | 1016.6 |
| 20260508212004 | 60 | 218 | 2.6 | 8.7 | 0.00 | 0.00 | 0.00 | 39 | 1015.2 |
| 20260508211620 | 61 | 229 | 2.6 | 8.7 | 0.00 | 0.00 | 0.00 | 40 | 1016.5 |
| 20260508211509 | 60 | 195 | 3.5 | 8.7 | 0.00 | 0.00 | 0.00 | 42 | 1015.1 |
| 20260508211114 | 61 | 104 | 1.7 | 6.1 | 0.00 | 0.00 | 0.00 | 41 | 1016.5 |
| 20260508211001 | 60 | 170 | 0.9 | 6.1 | 0.00 | 0.00 | 0.00 | 39 | 1015.1 |
| 20260508210608 | 61 | 103 | 1.7 | 6.1 | 0.00 | 0.00 | 0.00 | 42 | 1016.4 |
| 20260508210504 | 60 | 211 | 0.9 | 4.3 | 0.00 | 0.00 | 0.00 | 40 | 1015.0 |
| 20260508210004 | 60 | 125 | 0.9 | 4.3 | 0.00 | 0.00 | 0.00 | 40 | 1014.9 |
| 20260508205556 | 60 | 167 | 0.9 | 4.3 | 0.00 | 0.00 | 0.00 | 40 | 1016.3 |
| 20260508205501 | 60 | 259 | 0.9 | 4.3 | 0.00 | 0.00 | 0.00 | 40 | 1014.9 |
| 20260508205050 | 61 | 241 | 1.7 | 5.2 | 0.00 | 0.00 | 0.00 | 39 | 1016.3 |
| 20260508205002 | 61 | 17 | 1.7 | 7.8 | 0.00 | 0.00 | 0.00 | 39 | 1014.9 |
| 20260508204543 | 62 | 138 | 2.6 | 8.7 | 0.00 | 0.00 | 0.00 | 40 | 1016.5 |
| 20260508204510 | 61 | 198 | 0.0 | 8.7 | 0.00 | 0.00 | 0.00 | 40 | 1015.0 |
| 20260508204306 | 61 | 143 | 3.5 | 8.7 | 0.00 | 0.00 | 0.00 | 43 | 1016.4 |
| 20260508204002 | 61 | 123 | 4.3 | 8.7 | 0.00 | 0.00 | 0.00 | 43 | 1015.0 |
| 20260508203533 | 61 | 317 | 3.5 | 9.6 | 0.00 | 0.00 | 0.00 | 46 | 1016.5 |
| 20260508203502 | 60 | 240 | 1.7 | 9.6 | 0.00 | 0.00 | 0.00 | 45 | 1015.0 |
| 20260508203027 | 60 | 104 | 5.2 | 10.4 | 0.00 | 0.00 | 0.00 | 46 | 1016.5 |
| 20260508203004 | 60 | 122 | 1.7 | 12.2 | 0.00 | 0.00 | 0.00 | 46 | 1015.0 |
| 20260508202520 | 60 | 114 | 5.2 | 12.2 | 0.00 | 0.00 | 0.00 | 46 | 1016.5 |
| 20260508202504 | 59 | 92 | 4.3 | 12.2 | 0.00 | 0.00 | 0.00 | 46 | 1015.0 |
| 20260508202014 | 59 | 72 | 3.5 | 9.6 | 0.00 | 0.00 | 0.00 | 46 | 1016.6 |
| 20260508202004 | 59 | 86 | 3.5 | 9.6 | 0.00 | 0.00 | 0.00 | 46 | 1015.0 |
| 20260508201508 | 58 | 113 | 3.5 | 10.4 | 0.00 | 0.00 | 0.00 | 47 | 1016.5 |
| 20260508201503 | 58 | 123 | 1.7 | 10.4 | 0.00 | 0.00 | 0.00 | 47 | 1015.2 |
| 20260508201004 | 58 | 242 | 0.9 | 10.4 | 0.00 | 0.00 | 0.00 | 45 | 1015.2 |
| 20260508200504 | 57 | 96 | 2.6 | 7.0 | 0.00 | 0.00 | 0.00 | 48 | 1015.2 |
| 20260508200456 | 58 | 98 | 1.7 | 7.0 | 0.00 | 0.00 | 0.00 | 48 | 1016.7 |
| 20260508200213 | 58 | 225 | 1.7 | 7.0 | 0.00 | 0.00 | 0.00 | 46 | 1016.8 |
| 20260508200015 | 58 | 227 | 0.9 | 7.0 | 0.00 | 0.00 | 0.00 | 45 | 1015.4 |
| 20260508195502 | 58 | 93 | 0.9 | 8.7 | 0.00 | 0.00 | 0.00 | 46 | 1015.4 |
| 20260508195443 | 58 | 250 | 3.5 | 8.7 | 0.00 | 0.00 | 0.00 | 46 | 1016.8 |
| 20260508195002 | 58 | 109 | 5.2 | 8.7 | 0.00 | 0.00 | 0.00 | 47 | 1015.3 |
| 20260508194938 | 59 | 115 | 4.3 | 8.7 | 0.00 | 0.00 | 0.00 | 48 | 1016.7 |
| 20260508194658 | 59 | 113 | 3.5 | 7.8 | 0.00 | 0.00 | 0.00 | 46 | 1016.7 |
| 20260508194502 | 59 | 98 | 4.3 | 7.8 | 0.00 | 0.00 | 0.00 | 45 | 1015.2 |
| 20260508194147 | 59 | 111 | 2.6 | 7.0 | 0.00 | 0.00 | 0.00 | 47 | 1016.8 |
| 20260508194002 | 59 | 109 | 3.5 | 7.0 | 0.00 | 0.00 | 0.00 | 46 | 1015.3 |
| 20260508193503 | 59 | 105 | 1.7 | 7.0 | 0.00 | 0.00 | 0.00 | 45 | 1015.3 |
| 20260508193420 | 59 | 111 | 1.7 | 7.0 | 0.00 | 0.00 | 0.00 | 46 | 1016.7 |
| 20260508193003 | 59 | 110 | 1.7 | 7.0 | 0.00 | 0.00 | 0.00 | 46 | 1015.2 |
| 20260508192915 | 60 | 103 | 2.6 | 7.0 | 0.00 | 0.00 | 0.00 | 46 | 1016.6 |
| 20260508192503 | 59 | 111 | 0.9 | 10.4 | 0.00 | 0.00 | 0.00 | 46 | 1015.1 |
| 20260508192414 | 60 | 111 | 4.3 | 10.4 | 0.00 | 0.00 | 0.00 | 47 | 1016.5 |
| 20260508192003 | 59 | 139 | 5.2 | 10.4 | 0.00 | 0.00 | 0.00 | 46 | 1015.1 |
| 20260508191914 | 60 | 115 | 4.3 | 10.4 | 0.00 | 0.00 | 0.00 | 49 | 1016.5 |
| 20260508191507 | 60 | 112 | 3.5 | 11.3 | 0.00 | 0.00 | 0.00 | 47 | 1014.9 |
| 20260508191414 | 60 | 108 | 3.5 | 11.3 | 0.00 | 0.00 | 0.00 | 48 | 1016.5 |
| 20260508191004 | 60 | 137 | 1.7 | 11.3 | 0.00 | 0.00 | 0.00 | 46 | 1014.9 |
| 20260508190914 | 60 | 198 | 4.3 | 11.3 | 0.00 | 0.00 | 0.00 | 49 | 1016.4 |
| 20260508190502 | 60 | 109 | 6.1 | 11.3 | 0.00 | 0.00 | 0.00 | 49 | 1015.0 |
| 20260508190414 | 60 | 80 | 2.6 | 10.4 | 0.00 | 0.00 | 0.00 | 50 | 1016.4 |